Volver al catálogo

O3B FM15

ActivoComunicacionesMEO
NORAD 43231·PAYLOAD·🇱🇺 Luxembourg

Lanzado Mar 9, 2018 desde Guiana Space Centre

Loading…

Próximos Pases (próximas 24 horas)

TLE

ActualizadoSource: CelesTrak SupGP

Época: Sep 13, 2026, 18:00 UTC

1 43231C 18024A   26256.75000000  .00000000  00000+0  00000+0 0  2565
2 43231   0.0562 356.6200 0002577 177.0814  16.7283  5.00115951    14

Sigue O3B FM15 en tiempo real con AllMySat

Download on the App Store